contact:dominique.lefevre@mio.osupytheas.fr, maurice.libes@osupytheas.fr, didier.mallarino@osupytheas.fr
Project:EMSO http://www.emso-fr.org/EMSO-France
Depth: 2436.0 m
Title:EMSO Ligure Ouest : Data MII capteur MICROCAT
DateTime_Computer,Latitude,Longitude,Temperature,Conductivity,Pressure,DateTime_Instrument
DateTime_Computer,Latitude,Longitude,degC,S m-1,dbar,DateTime_Instrument
2021-04-23T00:01:04Z,42.805,6.029,13.2980,4.59989,2470.38,2021-4-23T02:02:13Z
2021-04-23T00:04:07Z,42.805,6.029,13.2983,4.59991,2470.343,2021-4-23T02:05:16Z
2021-04-23T00:07:10Z,42.805,6.029,13.2983,4.59989,2470.334,2021-4-23T02:08:19Z
2021-04-23T00:10:13Z,42.805,6.029,13.2983,4.59992,2470.38,2021-4-23T02:11:22Z
2021-04-23T00:13:16Z,42.805,6.029,13.2985,4.59993,2470.366,2021-4-23T02:14:26Z
2021-04-23T00:16:20Z,42.805,6.029,13.2981,4.59991,2470.357,2021-4-23T02:17:29Z
2021-04-23T00:19:23Z,42.805,6.029,13.2982,4.59994,2470.38,2021-4-23T02:20:32Z
2021-04-23T00:22:26Z,42.805,6.029,13.2983,4.59994,2470.39,2021-4-23T02:23:35Z
2021-04-23T00:25:29Z,42.805,6.029,13.2982,4.59991,2470.32,2021-4-23T02:26:38Z
2021-04-23T00:28:32Z,42.805,6.029,13.2981,4.59991,2470.39,2021-4-23T02:29:41Z
2021-04-23T00:31:35Z,42.805,6.029,13.2981,4.59991,2470.366,2021-4-23T02:32:44Z
2021-04-23T00:34:38Z,42.805,6.029,13.2981,4.59992,2470.39,2021-4-23T02:35:47Z
2021-04-23T00:37:41Z,42.805,6.029,13.2982,4.59990,2470.404,2021-4-23T02:38:51Z
2021-04-23T00:40:44Z,42.805,6.029,13.2982,4.59994,2470.39,2021-4-23T02:41:54Z
2021-04-23T00:43:48Z,42.805,6.029,13.2983,4.59992,2470.376,2021-4-23T02:44:57Z
2021-04-23T00:46:51Z,42.805,6.029,13.2983,4.59991,2470.413,2021-4-23T02:48:00Z
2021-04-23T00:49:54Z,42.805,6.029,13.2982,4.59990,2470.366,2021-4-23T02:51:03Z
2021-04-23T00:52:57Z,42.805,6.029,13.2983,4.59991,2470.366,2021-4-23T02:54:06Z
2021-04-23T00:56:00Z,42.805,6.029,13.2983,4.59990,2470.39,2021-4-23T02:57:09Z
2021-04-23T00:59:03Z,42.805,6.029,13.2983,4.59989,2470.427,2021-4-23T03:00:12Z
2021-04-23T01:02:06Z,42.805,6.029,13.2980,4.59990,2470.39,2021-4-23T03:03:16Z
2021-04-23T01:05:09Z,42.805,6.029,13.2983,4.59992,2470.413,2021-4-23T03:06:19Z
2021-04-23T01:08:13Z,42.805,6.029,13.2984,4.59992,2470.404,2021-4-23T03:09:22Z
2021-04-23T01:11:16Z,42.805,6.029,13.2986,4.59988,2470.404,2021-4-23T03:12:25Z
2021-04-23T01:14:19Z,42.805,6.029,13.2985,4.59989,2470.413,2021-4-23T03:15:28Z
2021-04-23T01:17:22Z,42.805,6.029,13.2980,4.59988,2470.413,2021-4-23T03:18:31Z
2021-04-23T01:20:25Z,42.805,6.029,13.2981,4.59988,2470.413,2021-4-23T03:21:34Z
2021-04-23T01:23:28Z,42.805,6.029,13.2983,4.59990,2470.437,2021-4-23T03:24:37Z
2021-04-23T01:26:31Z,42.805,6.029,13.2983,4.59988,2470.437,2021-4-23T03:27:41Z
2021-04-23T01:29:34Z,42.805,6.029,13.2979,4.59988,2470.45,2021-4-23T03:30:44Z
2021-04-23T01:32:38Z,42.805,6.029,13.2978,4.59988,2470.437,2021-4-23T03:33:47Z
2021-04-23T01:35:41Z,42.805,6.029,13.2982,4.59990,2470.39,2021-4-23T03:36:50Z
2021-04-23T01:38:44Z,42.805,6.029,13.2986,4.59989,2470.437,2021-4-23T03:39:53Z
2021-04-23T01:41:47Z,42.805,6.029,13.2983,4.59988,2470.413,2021-4-23T03:42:56Z
2021-04-23T01:44:50Z,42.805,6.029,13.2985,4.59990,2470.413,2021-4-23T03:45:59Z
2021-04-23T01:47:53Z,42.805,6.029,13.2979,4.59989,2470.437,2021-4-23T03:49:02Z
2021-04-23T01:50:56Z,42.805,6.029,13.2982,4.59993,2470.413,2021-4-23T03:52:06Z
2021-04-23T01:53:59Z,42.805,6.029,13.2980,4.59990,2470.46,2021-4-23T03:55:09Z
2021-04-23T01:57:03Z,42.805,6.029,13.2983,4.59990,2470.474,2021-4-23T03:58:12Z
2021-04-23T02:00:06Z,42.805,6.029,13.2982,4.59994,2470.437,2021-4-23T04:01:15Z
2021-04-23T02:03:09Z,42.805,6.029,13.2982,4.59990,2470.437,2021-4-23T04:04:18Z
2021-04-23T02:06:12Z,42.805,6.029,13.2982,4.59989,2470.437,2021-4-23T04:07:21Z
2021-04-23T02:09:15Z,42.805,6.029,13.2983,4.59988,2470.46,2021-4-23T04:10:24Z
2021-04-23T02:12:18Z,42.805,6.029,13.2983,4.59989,2470.46,2021-4-23T04:13:27Z
2021-04-23T02:15:21Z,42.805,6.029,13.2979,4.59990,2470.437,2021-4-23T04:16:31Z
2021-04-23T02:18:24Z,42.805,6.029,13.2981,4.59988,2470.474,2021-4-23T04:19:34Z
2021-04-23T02:21:28Z,42.805,6.029,13.2982,4.59993,2470.497,2021-4-23T04:22:37Z
2021-04-23T02:24:31Z,42.805,6.029,13.2983,4.59991,2470.483,2021-4-23T04:25:40Z
2021-04-23T02:27:34Z,42.805,6.029,13.2978,4.59991,2470.474,2021-4-23T04:28:43Z
2021-04-23T02:30:37Z,42.805,6.029,13.2982,4.59996,2470.437,2021-4-23T04:31:46Z
2021-04-23T02:33:40Z,42.805,6.029,13.2980,4.59991,2470.437,2021-4-23T04:34:49Z
2021-04-23T02:36:43Z,42.805,6.029,13.2982,4.59990,2470.413,2021-4-23T04:37:52Z
2021-04-23T02:39:46Z,42.805,6.029,13.2982,4.59993,2470.474,2021-4-23T04:40:56Z
2021-04-23T02:42:49Z,42.805,6.029,13.2981,4.59995,2470.474,2021-4-23T04:43:59Z
2021-04-23T02:45:53Z,42.805,6.029,13.2983,4.59988,2470.45,2021-4-23T04:47:02Z
2021-04-23T02:48:56Z,42.805,6.029,13.2983,4.59990,2470.474,2021-4-23T04:50:05Z
2021-04-23T02:51:59Z,42.805,6.029,13.2982,4.59989,2470.46,2021-4-23T04:53:08Z
2021-04-23T02:55:02Z,42.805,6.029,13.2982,4.59988,2470.483,2021-4-23T04:56:11Z
2021-04-23T02:58:05Z,42.805,6.029,13.2983,4.59987,2470.45,2021-4-23T04:59:14Z
2021-04-23T03:01:08Z,42.805,6.029,13.2987,4.59987,2470.483,2021-4-23T05:02:17Z
2021-04-23T03:04:11Z,42.805,6.029,13.2982,4.59986,2470.483,2021-4-23T05:05:21Z
2021-04-23T03:07:14Z,42.805,6.029,13.2983,4.59987,2470.474,2021-4-23T05:08:24Z
2021-04-23T03:10:18Z,42.805,6.029,13.2983,4.59987,2470.46,2021-4-23T05:11:27Z
2021-04-23T03:13:21Z,42.805,6.029,13.2981,4.59988,2470.437,2021-4-23T05:14:30Z
2021-04-23T03:16:24Z,42.805,6.029,13.2984,4.59990,2470.474,2021-4-23T05:17:33Z
2021-04-23T03:19:27Z,42.805,6.029,13.2981,4.59988,2470.544,2021-4-23T05:20:36Z
2021-04-23T03:22:30Z,42.805,6.029,13.2986,4.59989,2470.474,2021-4-23T05:23:39Z
2021-04-23T03:25:33Z,42.805,6.029,13.2980,4.59988,2470.483,2021-4-23T05:26:42Z
2021-04-23T03:28:36Z,42.805,6.029,13.2982,4.59989,2470.46,2021-4-23T05:29:46Z
2021-04-23T03:31:39Z,42.805,6.029,13.2984,4.59990,2470.46,2021-4-23T05:32:49Z
2021-04-23T03:34:43Z,42.805,6.029,13.2982,4.59991,2470.46,2021-4-23T05:35:52Z
2021-04-23T03:37:46Z,42.805,6.029,13.2981,4.59998,2470.483,2021-4-23T05:38:55Z
2021-04-23T03:40:49Z,42.805,6.029,13.2982,4.60003,2470.46,2021-4-23T05:41:58Z
2021-04-23T03:43:52Z,42.805,6.029,13.2981,4.60006,2470.46,2021-4-23T05:45:01Z
2021-04-23T03:46:55Z,42.805,6.029,13.2982,4.59999,2470.437,2021-4-23T05:48:04Z
2021-04-23T03:49:58Z,42.805,6.029,13.2983,4.60011,2470.474,2021-4-23T05:51:07Z
2021-04-23T03:53:01Z,42.805,6.029,13.3043,4.59997,2470.437,2021-4-23T05:54:11Z
2021-04-23T03:56:04Z,42.805,6.029,13.2986,4.60002,2470.46,2021-4-23T05:57:14Z
2021-04-23T03:59:08Z,42.805,6.029,13.2982,4.59993,2470.483,2021-4-23T06:00:17Z
2021-04-23T04:02:11Z,42.805,6.029,13.2983,4.59996,2470.483,2021-4-23T06:03:20Z
2021-04-23T04:05:14Z,42.805,6.029,13.2983,4.59992,2470.437,2021-4-23T06:06:23Z
2021-04-23T04:08:17Z,42.805,6.029,13.2983,4.59994,2470.46,2021-4-23T06:09:26Z
2021-04-23T04:11:20Z,42.805,6.029,13.2983,4.59995,2470.437,2021-4-23T06:12:29Z
2021-04-23T04:14:23Z,42.805,6.029,13.2986,4.59995,2470.45,2021-4-23T06:15:32Z
2021-04-23T04:17:26Z,42.805,6.029,13.2980,4.59989,2470.427,2021-4-23T06:18:35Z
2021-04-23T04:20:29Z,42.805,6.029,13.2985,4.59990,2470.427,2021-4-23T06:21:39Z
2021-04-23T04:23:33Z,42.805,6.029,13.2983,4.60000,2470.437,2021-4-23T06:24:42Z
2021-04-23T04:26:36Z,42.805,6.029,13.2989,4.59991,2470.45,2021-4-23T06:27:45Z
2021-04-23T04:29:39Z,42.805,6.029,13.2989,4.59991,2470.437,2021-4-23T06:30:48Z
2021-04-23T04:32:42Z,42.805,6.029,13.2985,4.59993,2470.38,2021-4-23T06:33:51Z
2021-04-23T04:35:45Z,42.805,6.029,13.2980,4.59989,2470.427,2021-4-23T06:36:54Z
2021-04-23T04:38:48Z,42.805,6.029,13.2983,4.59992,2470.413,2021-4-23T06:39:57Z
2021-04-23T04:41:51Z,42.805,6.029,13.2980,4.59987,2470.437,2021-4-23T06:43:00Z
2021-04-23T04:44:54Z,42.805,6.029,13.2986,4.59989,2470.413,2021-4-23T06:46:04Z
2021-04-23T04:47:57Z,42.805,6.029,13.2985,4.59991,2470.427,2021-4-23T06:49:07Z
2021-04-23T04:51:01Z,42.805,6.029,13.2988,4.59989,2470.39,2021-4-23T06:52:10Z
2021-04-23T04:54:04Z,42.805,6.029,13.2982,4.59988,2470.39,2021-4-23T06:55:13Z
2021-04-23T04:57:07Z,42.805,6.029,13.2986,4.59991,2470.413,2021-4-23T06:58:16Z
2021-04-23T05:00:10Z,42.805,6.029,13.2983,4.59988,2470.404,2021-4-23T07:01:19Z
2021-04-23T05:03:13Z,42.805,6.029,13.2985,4.59988,2470.366,2021-4-23T07:04:22Z
2021-04-23T05:06:16Z,42.805,6.029,13.2986,4.59989,2470.39,2021-4-23T07:07:25Z
2021-04-23T05:09:19Z,42.805,6.029,13.2986,4.59989,2470.413,2021-4-23T07:10:29Z
2021-04-23T05:12:22Z,42.805,6.029,13.2989,4.59992,2470.413,2021-4-23T07:13:32Z
2021-04-23T05:15:26Z,42.805,6.029,13.2986,4.59991,2470.39,2021-4-23T07:16:35Z
2021-04-23T05:18:29Z,42.805,6.029,13.2987,4.59995,2470.413,2021-4-23T07:19:38Z
2021-04-23T05:21:32Z,42.805,6.029,13.2983,4.59989,2470.39,2021-4-23T07:22:41Z
2021-04-23T05:24:35Z,42.805,6.029,13.2984,4.59996,2470.413,2021-4-23T07:25:44Z
2021-04-23T05:27:38Z,42.805,6.029,13.2985,4.59993,2470.38,2021-4-23T07:28:47Z
2021-04-23T05:30:41Z,42.805,6.029,13.2983,4.60002,2470.39,2021-4-23T07:31:50Z
2021-04-23T05:33:44Z,42.805,6.029,13.2982,4.59999,2470.413,2021-4-23T07:34:54Z
2021-04-23T05:36:47Z,42.805,6.029,13.2982,4.59991,2470.427,2021-4-23T07:37:57Z
2021-04-23T05:39:51Z,42.805,6.029,13.2986,4.60000,2470.404,2021-4-23T07:41:00Z
2021-04-23T05:42:54Z,42.805,6.029,13.2983,4.59999,2470.413,2021-4-23T07:44:03Z
2021-04-23T05:45:57Z,42.805,6.029,13.2981,4.59992,2470.39,2021-4-23T07:47:06Z
2021-04-23T05:49:00Z,42.805,6.029,13.2978,4.59994,2470.413,2021-4-23T07:50:09Z
2021-04-23T05:52:03Z,42.805,6.029,13.2982,4.59991,2470.413,2021-4-23T07:53:12Z
2021-04-23T05:55:06Z,42.805,6.029,13.2982,4.59991,2470.413,2021-4-23T07:56:15Z
2021-04-23T05:58:09Z,42.805,6.029,13.2981,4.59994,2470.413,2021-4-23T07:59:19Z
2021-04-23T06:01:12Z,42.805,6.029,13.2981,4.59994,2470.437,2021-4-23T08:02:22Z
2021-04-23T06:04:16Z,42.805,6.029,13.2982,4.60021,2470.404,2021-4-23T08:05:25Z
2021-04-23T06:07:19Z,42.805,6.029,13.2983,4.60006,2470.404,2021-4-23T08:08:28Z
2021-04-23T06:10:22Z,42.805,6.029,13.2983,4.60011,2470.39,2021-4-23T08:11:31Z
2021-04-23T06:13:25Z,42.805,6.029,13.2983,4.60006,2470.366,2021-4-23T08:14:34Z
2021-04-23T06:16:28Z,42.805,6.029,13.2980,4.60009,2470.404,2021-4-23T08:17:37Z
2021-04-23T06:19:31Z,42.805,6.029,13.2979,4.59997,2470.39,2021-4-23T08:20:40Z
2021-04-23T06:22:34Z,42.805,6.029,13.2982,4.59999,2470.39,2021-4-23T08:23:44Z
2021-04-23T06:25:37Z,42.805,6.029,13.2980,4.60002,2470.38,2021-4-23T08:26:47Z
2021-04-23T06:28:41Z,42.805,6.029,13.2982,4.60002,2470.343,2021-4-23T08:29:50Z
2021-04-23T06:31:44Z,42.805,6.029,13.2980,4.59993,2470.39,2021-4-23T08:32:53Z
2021-04-23T06:34:47Z,42.805,6.029,13.2979,4.59994,2470.343,2021-4-23T08:35:56Z
2021-04-23T06:37:50Z,42.805,6.029,13.2982,4.59996,2470.39,2021-4-23T08:38:59Z
2021-04-23T06:40:53Z,42.805,6.029,13.2979,4.59999,2470.343,2021-4-23T08:42:02Z
2021-04-23T06:43:56Z,42.805,6.029,13.2982,4.59996,2470.366,2021-4-23T08:45:05Z
2021-04-23T06:46:59Z,42.805,6.029,13.2984,4.59996,2470.404,2021-4-23T08:48:09Z
2021-04-23T06:50:02Z,42.805,6.029,13.2979,4.59998,2470.357,2021-4-23T08:51:12Z
2021-04-23T06:53:06Z,42.805,6.029,13.2981,4.59992,2470.366,2021-4-23T08:54:15Z
2021-04-23T06:56:09Z,42.805,6.029,13.2979,4.59993,2470.343,2021-4-23T08:57:18Z
2021-04-23T06:59:12Z,42.805,6.029,13.2979,4.59994,2470.38,2021-4-23T09:00:21Z
2021-04-23T07:02:15Z,42.805,6.029,13.2981,4.59993,2470.343,2021-4-23T09:03:24Z
2021-04-23T07:05:18Z,42.805,6.029,13.2979,4.59992,2470.343,2021-4-23T09:06:27Z
2021-04-23T07:08:21Z,42.805,6.029,13.2982,4.59996,2470.38,2021-4-23T09:09:30Z
2021-04-23T07:11:24Z,42.805,6.029,13.2983,4.59992,2470.366,2021-4-23T09:12:34Z
2021-04-23T07:14:27Z,42.805,6.029,13.2979,4.59991,2470.32,2021-4-23T09:15:37Z
2021-04-23T07:17:31Z,42.805,6.029,13.2979,4.59991,2470.38,2021-4-23T09:18:40Z
2021-04-23T07:20:34Z,42.805,6.029,13.2983,4.59993,2470.366,2021-4-23T09:21:43Z
2021-04-23T07:23:37Z,42.805,6.029,13.2982,4.59990,2470.31,2021-4-23T09:24:46Z
2021-04-23T07:26:40Z,42.805,6.029,13.2981,4.59992,2470.343,2021-4-23T09:27:49Z
2021-04-23T07:29:43Z,42.805,6.029,13.2981,4.59991,2470.334,2021-4-23T09:30:52Z
2021-04-23T07:32:46Z,42.805,6.029,13.2983,4.59990,2470.32,2021-4-23T09:33:55Z
2021-04-23T07:35:49Z,42.805,6.029,13.2982,4.59992,2470.297,2021-4-23T09:36:59Z
2021-04-23T07:38:52Z,42.805,6.029,13.2977,4.59991,2470.343,2021-4-23T09:40:02Z
2021-04-23T07:41:56Z,42.805,6.029,13.2979,4.59994,2470.297,2021-4-23T09:43:05Z
2021-04-23T07:44:59Z,42.805,6.029,13.2981,4.59991,2470.297,2021-4-23T09:46:08Z
2021-04-23T07:48:02Z,42.805,6.029,13.2983,4.59991,2470.31,2021-4-23T09:49:11Z
2021-04-23T07:51:05Z,42.805,6.029,13.2986,4.59990,2470.343,2021-4-23T09:52:14Z
2021-04-23T07:54:08Z,42.805,6.029,13.2979,4.59991,2470.297,2021-4-23T09:55:17Z
2021-04-23T07:57:11Z,42.805,6.029,13.2980,4.59991,2470.273,2021-4-23T09:58:20Z
2021-04-23T08:00:14Z,42.805,6.029,13.2982,4.59991,2470.357,2021-4-23T10:01:24Z
2021-04-23T08:03:17Z,42.805,6.029,13.2982,4.59991,2470.334,2021-4-23T10:04:27Z
2021-04-23T08:06:21Z,42.805,6.029,13.2978,4.59996,2470.297,2021-4-23T10:07:30Z
2021-04-23T08:09:24Z,42.805,6.029,13.2981,4.59991,2470.32,2021-4-23T10:10:33Z
2021-04-23T08:12:27Z,42.805,6.029,13.2983,4.59989,2470.32,2021-4-23T10:13:36Z
2021-04-23T08:15:30Z,42.805,6.029,13.2983,4.59993,2470.287,2021-4-23T10:16:39Z
2021-04-23T08:18:33Z,42.805,6.029,13.2983,4.59996,2470.25,2021-4-23T10:19:42Z
2021-04-23T08:21:36Z,42.805,6.029,13.2984,4.59997,2470.297,2021-4-23T10:22:45Z
2021-04-23T08:24:39Z,42.805,6.029,13.2983,4.59994,2470.273,2021-4-23T10:25:49Z
2021-04-23T08:27:42Z,42.805,6.029,13.2983,4.59991,2470.287,2021-4-23T10:28:52Z
2021-04-23T08:30:46Z,42.805,6.029,13.2982,4.59992,2470.297,2021-4-23T10:31:55Z
2021-04-23T08:33:49Z,42.805,6.029,13.2982,4.59994,2470.297,2021-4-23T10:34:58Z
2021-04-23T08:36:52Z,42.805,6.029,13.2982,4.59994,2470.297,2021-4-23T10:38:01Z
2021-04-23T08:39:55Z,42.805,6.029,13.2982,4.59997,2470.31,2021-4-23T10:41:04Z
2021-04-23T08:42:58Z,42.805,6.029,13.2984,4.59996,2470.343,2021-4-23T10:44:07Z
2021-04-23T08:46:01Z,42.805,6.029,13.2986,4.59997,2470.32,2021-4-23T10:47:10Z
2021-04-23T08:49:04Z,42.805,6.029,13.2983,4.59996,2470.297,2021-4-23T10:50:14Z
2021-04-23T08:52:07Z,42.805,6.029,13.2986,4.59995,2470.273,2021-4-23T10:53:17Z
2021-04-23T08:55:11Z,42.805,6.029,13.2982,4.59994,2470.273,2021-4-23T10:56:20Z
2021-04-23T08:58:14Z,42.805,6.029,13.2983,4.59995,2470.297,2021-4-23T10:59:23Z
2021-04-23T09:01:17Z,42.805,6.029,13.2980,4.59996,2470.297,2021-4-23T11:02:26Z
2021-04-23T09:04:20Z,42.805,6.029,13.2984,4.59994,2470.25,2021-4-23T11:05:29Z
2021-04-23T09:07:23Z,42.805,6.029,13.2982,4.59994,2470.273,2021-4-23T11:08:32Z
2021-04-23T09:10:26Z,42.805,6.029,13.2986,4.59994,2470.273,2021-4-23T11:11:35Z
2021-04-23T09:13:29Z,42.805,6.029,13.2984,4.59996,2470.31,2021-4-23T11:14:39Z
2021-04-23T09:16:32Z,42.805,6.029,13.2983,4.59990,2470.273,2021-4-23T11:17:42Z
2021-04-23T09:19:36Z,42.805,6.029,13.2975,4.59999,2470.297,2021-4-23T11:20:45Z
2021-04-23T09:22:39Z,42.805,6.029,13.2982,4.59991,2470.25,2021-4-23T11:23:48Z
2021-04-23T09:25:42Z,42.805,6.029,13.2980,4.59992,2470.273,2021-4-23T11:26:51Z
2021-04-23T09:28:45Z,42.805,6.029,13.2981,4.59996,2470.273,2021-4-23T11:29:54Z
2021-04-23T09:31:48Z,42.805,6.029,13.2982,4.59991,2470.297,2021-4-23T11:32:57Z
2021-04-23T09:34:51Z,42.805,6.029,13.2980,4.59991,2470.273,2021-4-23T11:36:00Z
2021-04-23T09:37:54Z,42.805,6.029,13.2983,4.59991,2470.264,2021-4-23T11:39:04Z
2021-04-23T09:40:57Z,42.805,6.029,13.2982,4.59990,2470.25,2021-4-23T11:42:07Z
2021-04-23T09:44:01Z,42.805,6.029,13.2982,4.59991,2470.227,2021-4-23T11:45:10Z
2021-04-23T09:47:04Z,42.805,6.029,13.2979,4.59994,2470.273,2021-4-23T11:48:13Z
2021-04-23T09:50:07Z,42.805,6.029,13.2983,4.59992,2470.227,2021-4-23T11:51:16Z
2021-04-23T09:53:10Z,42.805,6.029,13.2986,4.59990,2470.189,2021-4-23T11:54:19Z
2021-04-23T09:56:13Z,42.805,6.029,13.2979,4.59990,2470.203,2021-4-23T11:57:22Z
2021-04-23T09:59:16Z,42.805,6.029,13.2983,4.59991,2470.25,2021-4-23T12:00:25Z
2021-04-23T10:02:19Z,42.805,6.029,13.2979,4.59991,2470.25,2021-4-23T12:03:29Z
2021-04-23T10:05:22Z,42.805,6.029,13.2984,4.59991,2470.203,2021-4-23T12:06:32Z
2021-04-23T10:08:26Z,42.805,6.029,13.2983,4.59991,2470.227,2021-4-23T12:09:35Z
2021-04-23T10:11:29Z,42.805,6.029,13.2984,4.59992,2470.18,2021-4-23T12:12:38Z
2021-04-23T10:14:32Z,42.805,6.029,13.2983,4.59999,2470.194,2021-4-23T12:15:41Z
2021-04-23T10:17:35Z,42.805,6.029,13.2985,4.59991,2470.203,2021-4-23T12:18:44Z
2021-04-23T10:20:38Z,42.805,6.029,13.2982,4.59992,2470.217,2021-4-23T12:21:47Z
2021-04-23T10:23:41Z,42.805,6.029,13.2982,4.59992,2470.18,2021-4-23T12:24:50Z
2021-04-23T10:26:44Z,42.805,6.029,13.2984,4.59992,2470.18,2021-4-23T12:27:54Z
2021-04-23T10:29:47Z,42.805,6.029,13.2981,4.59991,2470.18,2021-4-23T12:30:57Z
2021-04-23T10:32:51Z,42.805,6.029,13.2983,4.59991,2470.18,2021-4-23T12:34:00Z
2021-04-23T10:35:54Z,42.805,6.029,13.2977,4.59989,2470.171,2021-4-23T12:37:03Z
2021-04-23T10:38:57Z,42.805,6.029,13.2983,4.59991,2470.18,2021-4-23T12:40:06Z
2021-04-23T10:42:00Z,42.805,6.029,13.2979,4.59991,2470.194,2021-4-23T12:43:09Z
2021-04-23T10:45:03Z,42.805,6.029,13.2982,4.59992,2470.171,2021-4-23T12:46:12Z
2021-04-23T10:48:06Z,42.805,6.029,13.2983,4.59990,2470.171,2021-4-23T12:49:15Z
2021-04-23T10:51:09Z,42.805,6.029,13.2986,4.59994,2470.171,2021-4-23T12:52:19Z
2021-04-23T10:54:12Z,42.805,6.029,13.2986,4.59994,2470.156,2021-4-23T12:55:22Z
2021-04-23T10:57:16Z,42.805,6.029,13.2984,4.59992,2470.156,2021-4-23T12:58:25Z
2021-04-23T11:00:19Z,42.805,6.029,13.2980,4.59996,2470.133,2021-4-23T13:01:28Z
2021-04-23T11:03:22Z,42.805,6.029,13.2978,4.59991,2470.11,2021-4-23T13:04:31Z
2021-04-23T11:06:25Z,42.805,6.029,13.2981,4.59990,2470.194,2021-4-23T13:07:34Z
2021-04-23T11:09:28Z,42.805,6.029,13.2981,4.59994,2470.147,2021-4-23T13:10:37Z
2021-04-23T11:12:31Z,42.805,6.029,13.2984,4.60001,2470.156,2021-4-23T13:13:40Z
2021-04-23T11:15:34Z,42.805,6.029,13.2986,4.59994,2470.133,2021-4-23T13:16:44Z
2021-04-23T11:18:38Z,42.805,6.029,13.2981,4.59995,2470.147,2021-4-23T13:19:47Z
2021-04-23T11:21:41Z,42.805,6.029,13.2979,4.59996,2470.11,2021-4-23T13:22:50Z
2021-04-23T11:24:44Z,42.805,6.029,13.2981,4.59991,2470.11,2021-4-23T13:25:53Z
2021-04-23T11:27:47Z,42.805,6.029,13.2982,4.59993,2470.119,2021-4-23T13:28:56Z
2021-04-23T11:30:50Z,42.805,6.029,13.2982,4.59998,2470.124,2021-4-23T13:31:59Z
2021-04-23T11:33:53Z,42.805,6.029,13.2979,4.59989,2470.087,2021-4-23T13:35:02Z
2021-04-23T11:36:56Z,42.805,6.029,13.2977,4.59993,2470.1,2021-4-23T13:38:06Z
2021-04-23T11:39:59Z,42.805,6.029,13.2982,4.59994,2470.1,2021-4-23T13:41:09Z
2021-04-23T11:43:03Z,42.805,6.029,13.2983,4.59996,2470.1,2021-4-23T13:44:12Z
2021-04-23T11:46:06Z,42.805,6.029,13.2979,4.59996,2470.1,2021-4-23T13:47:15Z
2021-04-23T11:49:09Z,42.805,6.029,13.2983,4.59993,2470.063,2021-4-23T13:50:18Z
2021-04-23T11:52:12Z,42.805,6.029,13.2983,4.59994,2470.1,2021-4-23T13:53:21Z
2021-04-23T11:55:15Z,42.805,6.029,13.2980,4.59989,2470.063,2021-4-23T13:56:24Z
2021-04-23T11:58:18Z,42.805,6.029,13.2979,4.59994,2470.04,2021-4-23T13:59:27Z
2021-04-23T12:01:21Z,42.805,6.029,13.2981,4.59994,2470.087,2021-4-23T14:02:31Z
2021-04-23T12:04:24Z,42.805,6.029,13.2981,4.59996,2470.077,2021-4-23T14:05:34Z
2021-04-23T12:07:28Z,42.805,6.029,13.2979,4.59993,2470.04,2021-4-23T14:08:37Z
2021-04-23T12:10:31Z,42.805,6.029,13.2979,4.59996,2470.04,2021-4-23T14:11:40Z
2021-04-23T12:13:34Z,42.805,6.029,13.2982,4.59996,2470.087,2021-4-23T14:14:43Z
2021-04-23T12:16:37Z,42.805,6.029,13.2980,4.59994,2470.087,2021-4-23T14:17:46Z
2021-04-23T12:19:40Z,42.805,6.029,13.2979,4.59993,2470.087,2021-4-23T14:20:49Z
2021-04-23T12:22:43Z,42.805,6.029,13.2979,4.59994,2470.1,2021-4-23T14:23:52Z
2021-04-23T12:25:46Z,42.805,6.029,13.2980,4.59999,2470.063,2021-4-23T14:26:56Z
2021-04-23T12:28:49Z,42.805,6.029,13.2985,4.60002,2470.063,2021-4-23T14:29:59Z
2021-04-23T12:31:53Z,42.805,6.029,13.2980,4.59993,2470.017,2021-4-23T14:33:02Z
2021-04-23T12:34:56Z,42.805,6.029,13.2982,4.59992,2470.03,2021-4-23T14:36:05Z
2021-04-23T12:37:59Z,42.805,6.029,13.2983,4.59997,2470.077,2021-4-23T14:39:08Z
2021-04-23T12:41:02Z,42.805,6.029,13.2983,4.59999,2470.087,2021-4-23T14:42:11Z
2021-04-23T12:44:05Z,42.805,6.029,13.2983,4.59990,2470.063,2021-4-23T14:45:14Z
2021-04-23T12:47:08Z,42.805,6.029,13.2982,4.59991,2470.017,2021-4-23T14:48:17Z
2021-04-23T12:50:11Z,42.805,6.029,13.2979,4.59992,2470.063,2021-4-23T14:51:21Z
2021-04-23T12:53:14Z,42.805,6.029,13.2979,4.59993,2470.063,2021-4-23T14:54:24Z
2021-04-23T12:56:18Z,42.805,6.029,13.2979,4.59993,2470.063,2021-4-23T14:57:27Z
2021-04-23T12:59:21Z,42.805,6.029,13.2982,4.59988,2470.077,2021-4-23T15:00:30Z
2021-04-23T13:02:24Z,42.805,6.029,13.2982,4.59993,2470.04,2021-4-23T15:03:33Z
2021-04-23T13:05:27Z,42.805,6.029,13.2983,4.59996,2470.017,2021-4-23T15:06:36Z
2021-04-23T13:08:30Z,42.805,6.029,13.2978,4.59992,2470.1,2021-4-23T15:09:39Z
2021-04-23T13:11:33Z,42.805,6.029,13.2982,4.59992,2470.03,2021-4-23T15:12:42Z
2021-04-23T13:14:36Z,42.805,6.029,13.2982,4.59990,2470.063,2021-4-23T15:15:46Z
2021-04-23T13:17:39Z,42.805,6.029,13.2983,4.59996,2470.04,2021-4-23T15:18:49Z
2021-04-23T13:20:43Z,42.805,6.029,13.2979,4.59995,2470.017,2021-4-23T15:21:52Z
2021-04-23T13:23:46Z,42.805,6.029,13.2981,4.59991,2470.017,2021-4-23T15:24:55Z
2021-04-23T13:26:49Z,42.805,6.029,13.2982,4.59993,2470.077,2021-4-23T15:27:58Z
2021-04-23T13:29:52Z,42.805,6.029,13.2981,4.59993,2470.04,2021-4-23T15:31:01Z
2021-04-23T13:32:55Z,42.805,6.029,13.2984,4.59995,2470.017,2021-4-23T15:34:04Z
2021-04-23T13:35:58Z,42.805,6.029,13.2982,4.59990,2470.04,2021-4-23T15:37:07Z
2021-04-23T13:39:01Z,42.805,6.029,13.2983,4.59990,2470.077,2021-4-23T15:40:11Z
2021-04-23T13:42:04Z,42.805,6.029,13.2985,4.59993,2470.04,2021-4-23T15:43:14Z
2021-04-23T13:45:08Z,42.805,6.029,13.2979,4.59994,2470.017,2021-4-23T15:46:17Z
2021-04-23T13:48:11Z,42.805,6.029,13.2981,4.59995,2470.017,2021-4-23T15:49:20Z
2021-04-23T13:51:14Z,42.805,6.029,13.2977,4.59992,2469.97,2021-4-23T15:52:23Z
2021-04-23T13:54:17Z,42.805,6.029,13.2981,4.59991,2469.97,2021-4-23T15:55:26Z
2021-04-23T13:57:20Z,42.805,6.029,13.2977,4.59994,2470.017,2021-4-23T15:58:29Z
2021-04-23T14:00:23Z,42.805,6.029,13.2982,4.59995,2469.993,2021-4-23T16:01:33Z
2021-04-23T14:03:26Z,42.805,6.029,13.2980,4.59990,2470.007,2021-4-23T16:04:36Z
2021-04-23T14:06:30Z,42.805,6.029,13.2980,4.59991,2469.993,2021-4-23T16:07:39Z
2021-04-23T14:09:33Z,42.805,6.029,13.2983,4.59994,2470.017,2021-4-23T16:10:42Z
2021-04-23T14:12:36Z,42.805,6.029,13.2983,4.59993,2470.053,2021-4-23T16:13:45Z
2021-04-23T14:15:39Z,42.805,6.029,13.2984,4.59992,2470.017,2021-4-23T16:16:48Z
2021-04-23T14:18:42Z,42.805,6.029,13.2986,4.59991,2470.007,2021-4-23T16:19:51Z
2021-04-23T14:21:45Z,42.805,6.029,13.2982,4.59991,2470.03,2021-4-23T16:22:54Z
2021-04-23T14:24:48Z,42.805,6.029,13.2982,4.59993,2470.053,2021-4-23T16:25:58Z
2021-04-23T14:27:51Z,42.805,6.029,13.2981,4.59994,2470.017,2021-4-23T16:29:01Z
2021-04-23T14:30:54Z,42.805,6.029,13.2982,4.59993,2469.993,2021-4-23T16:32:04Z
2021-04-23T14:33:58Z,42.805,6.029,13.2983,4.59989,2470.007,2021-4-23T16:35:07Z
2021-04-23T14:37:01Z,42.805,6.029,13.2983,4.59993,2470.007,2021-4-23T16:38:10Z
2021-04-23T14:40:04Z,42.805,6.029,13.2982,4.59991,2469.984,2021-4-23T16:41:13Z
2021-04-23T14:43:07Z,42.805,6.029,13.2981,4.59991,2469.947,2021-4-23T16:44:16Z
2021-04-23T14:46:10Z,42.805,6.029,13.2982,4.59988,2469.947,2021-4-23T16:47:19Z
2021-04-23T14:49:13Z,42.805,6.029,13.2983,4.59991,2469.947,2021-4-23T16:50:23Z
2021-04-23T14:52:16Z,42.805,6.029,13.2980,4.59991,2469.984,2021-4-23T16:53:26Z
2021-04-23T14:55:20Z,42.805,6.029,13.2981,4.59991,2469.97,2021-4-23T16:56:29Z
2021-04-23T14:58:23Z,42.805,6.029,13.2980,4.59990,2469.993,2021-4-23T16:59:32Z
2021-04-23T15:01:26Z,42.805,6.029,13.2977,4.59989,2469.993,2021-4-23T17:02:35Z
2021-04-23T15:04:29Z,42.805,6.029,13.2986,4.59988,2470.017,2021-4-23T17:05:38Z
2021-04-23T15:07:32Z,42.805,6.029,13.2979,4.59986,2469.97,2021-4-23T17:08:41Z
2021-04-23T15:10:35Z,42.805,6.029,13.2979,4.59988,2470.017,2021-4-23T17:11:44Z
2021-04-23T15:13:38Z,42.805,6.029,13.2980,4.59988,2470.03,2021-4-23T17:14:48Z